Tracking 29892 objects as of 21-Nov-2024
HD Live streaming from Space Station
objects crossing your sky now

SL-19 DEB

Track SL-19 DEB now!
10-day predictions


NORAD ID: 23480
Int'l Code: 1994-085D
Perigee: 1,741.7 km
Apogee: 2,139.4 km
Inclination: 64.7 °
Period: 125.7 minutes
Semi major axis: 8311 km
RCS: 0.1395 m2 (medium)
Launch date: December 26, 1994
Source: Commonwealth of Independent States (former USSR) (CIS)
Launch site: TYURATAM MISSILE AND SPACE COMPLEX (TTMTR)

Note: This is SATELLITE DEBRIS
Your satellite tracking list
Your tracking list is empty




NASA's NSSDC Master Catalog

Two Line Element Set (TLE):
1 23480U 94085D   24325.57315910  .00000208  00000-0  56044-2 0  9991
2 23480  64.7046  11.8663 0239265 238.0171 277.0677 11.45729729243811
Source of the keplerian elements: AFSPC